Andalusia, AL

1:00 AM CDT on August 21, 2017 (GMT -0500)
Andalusia

Weather History for K79J - October, 2012

Change the Weather History Date:

Tuesday, October 2, 2012

  Actual Average (KCEW) Record (KCEW)
Temperature  
Mean Temperature 70 °F -  
Max Temperature 78 °F 85 °F 93 °F (2006)
Min Temperature 61 °F 58 °F 42 °F (2001)
Cooling Degree Days 5    
Growing Degree Days 20 (Base 50)    
Moisture  
Dew Point 59 °F    
Average Humidity 71    
Maximum Humidity 88    
Minimum Humidity 48    
Precipitation  
Precipitation 0.00 in - - ()
Sea Level Pressure  
Sea Level Pressure 29.85 in    
Wind  
Wind Speed 5 mph (WNW)    
Max Wind Speed 9 mph    
Max Gust Speed -    
Visibility 10 miles    
Events      
Averages and records for this station are not official NWS values.
T = Trace of Precipitation, MM = Missing Value Source: NWS Daily Summary

Daily Weather History Graph

Daily Weather History Graph

Search for Another Location

Airport or City:

Trip Planner

Search our weather history database for the weather conditions in past years. The results will help you decide how hot, cold, wet, or windy it might be!

Date:

Astronomy

Oct. 02, 2012 Rise Set
Actual Time 6:40 AM CDT 6:28 PM CDT
Civil Twilight 6:16 AM CDT 6:52 PM CDT
Nautical Twilight 5:47 AM CDT 7:20 PM CDT
Astronomical Twilight 5:19 AM CDT 7:49 PM CDT
Moon 7:54 PM CDT (10/2) 8:54 AM CDT (10/2)
Length of Visible Light 12h 36m
Length of Day
11h 48m
Waning Gibbous, 94% of the Moon is Illuminated
Oct 2
Waning Gibbous
Oct 8
Last Quarter
Oct 15
New
Oct 21
First Quarter
Oct 29
Full

Hourly Weather History & Observations

Time (CDT) Temp. Dew Point Humidity Pressure Visibility Wind Dir Wind Speed Gust Speed Precip Events Conditions
12:56 AM 69.1 °F 62.1 °F 78% 29.71 in 10.0 mi WNW 5.8 mph - N/A   Overcast
1:56 AM 69.1 °F 62.1 °F 78% 29.70 in 10.0 mi WSW 4.6 mph - N/A   Overcast
2:56 AM 68.0 °F 61.0 °F 78% 29.71 in 10.0 mi West 3.5 mph - N/A   Overcast
3:56 AM 66.0 °F 60.1 °F 81% 29.73 in 10.0 mi West 3.5 mph - N/A   Clear
4:56 AM 64.9 °F 60.1 °F 84% 29.74 in 10.0 mi Calm Calm - N/A   Clear
5:56 AM 64.9 °F 60.1 °F 84% 29.76 in 10.0 mi Calm Calm - N/A   Overcast
6:24 AM 64.4 °F 60.8 °F 88% 29.78 in 10.0 mi Calm Calm - N/A   Scattered Clouds
6:56 AM 64.9 °F 60.1 °F 84% 29.78 in 8.0 mi Calm Calm - N/A   Overcast
7:56 AM 64.9 °F 60.1 °F 84% 29.80 in 10.0 mi West 4.6 mph - N/A   Overcast
8:32 AM 66.2 °F 60.8 °F 83% 29.82 in 10.0 mi West 6.9 mph - N/A   Overcast
8:45 AM 68.0 °F 60.8 °F 78% 29.84 in 10.0 mi West 5.8 mph - N/A   Overcast
8:56 AM 68.0 °F 60.1 °F 76% 29.83 in 10.0 mi West 9.2 mph - N/A   Mostly Cloudy
9:04 AM 68.0 °F 59.0 °F 73% 29.84 in 10.0 mi WNW 6.9 mph - N/A   Overcast
9:56 AM 70.0 °F 60.1 °F 71% 29.84 in 10.0 mi WNW 8.1 mph - N/A   Overcast
10:56 AM 72.0 °F 60.1 °F 66% 29.86 in 10.0 mi WNW 6.9 mph - N/A   Overcast
11:16 AM 71.6 °F 59.0 °F 64% 29.87 in 10.0 mi West 5.8 mph - N/A   Overcast
11:24 AM 71.6 °F 59.0 °F 64% 29.88 in 10.0 mi West 8.1 mph - N/A   Overcast
11:56 AM 72.0 °F 60.1 °F 66% 29.87 in 10.0 mi WNW 6.9 mph - N/A   Overcast
12:24 PM 71.6 °F 59.0 °F 64% 29.88 in 10.0 mi WNW 9.2 mph - N/A   Overcast
12:56 PM 73.0 °F 59.0 °F 61% 29.86 in 10.0 mi WNW 5.8 mph - N/A   Overcast
1:18 PM 73.4 °F 59.0 °F 61% 29.88 in 10.0 mi West 8.1 mph - N/A   Overcast
1:27 PM 73.4 °F 59.0 °F 61% 29.88 in 10.0 mi WNW 5.8 mph - N/A   Overcast
1:56 PM 75.0 °F 59.0 °F 57% 29.86 in 10.0 mi NW 5.8 mph - N/A   Overcast
2:17 PM 73.4 °F 59.0 °F 61% 29.87 in 10.0 mi West 3.5 mph - N/A   Overcast
2:45 PM 75.2 °F 57.2 °F 53% 29.88 in 10.0 mi Variable 6.9 mph - N/A   Mostly Cloudy
2:56 PM 77.0 °F 57.0 °F 50% 29.86 in 10.0 mi NW 8.1 mph - N/A   Mostly Cloudy
3:56 PM 78.1 °F 57.0 °F 48% 29.87 in 10.0 mi NW 8.1 mph - N/A   Mostly Cloudy
4:56 PM 75.9 °F 57.9 °F 54% 29.87 in 10.0 mi North 6.9 mph - N/A   Partly Cloudy
5:56 PM 73.0 °F 59.0 °F 61% 29.89 in 10.0 mi North 4.6 mph - N/A   Scattered Clouds
6:56 PM 70.0 °F 60.1 °F 71% 29.91 in 10.0 mi Calm Calm - N/A   Clear
7:56 PM 66.9 °F 59.0 °F 76% 29.95 in 10.0 mi North 5.8 mph - N/A   Clear
8:56 PM 64.9 °F 57.9 °F 78% 29.97 in 10.0 mi NNE 3.5 mph - N/A   Clear
9:56 PM 64.9 °F 57.0 °F 75% 29.99 in 10.0 mi Calm Calm - N/A   Clear
10:56 PM 62.1 °F 57.0 °F 84% 30.01 in 8.0 mi Calm Calm - N/A   Clear
11:56 PM 61.0 °F 55.9 °F 83% 30.01 in 6.0 mi Calm Calm - N/A   Haze